owner,sensor,date,latitude,longitude,vertical_datum,sea_water_practical_salinity,qcFlag 
DISL,ioos:station:DISL:CATA:1,2011-08-01T00:00:00Z,30.3085,-88.1395,2.281,19.67,1111122 
DISL,ioos:station:DISL:CATA:1,2011-08-01T00:30:00Z,30.3085,-88.1395,2.222,19.34,1111122 
DISL,ioos:station:DISL:CATA:1,2011-08-01T01:00:00Z,30.3085,-88.1395,2.227,18.88,1111122 
DISL,ioos:station:DISL:CATA:1,2011-08-01T01:30:00Z,30.3085,-88.1395,2.221,18.36,1111122 
DISL,ioos:station:DISL:CATA:1,2011-08-01T02:00:00Z,30.3085,-88.1395,2.219,18.3,1111122 
DISL,ioos:station:DISL:CATA:1,2011-08-01T02:30:00Z,30.3085,-88.1395,2.198,18.9,1111122 
DISL,ioos:station:DISL:CATA:1,2011-08-01T03:00:00Z,30.3085,-88.1395,2.197,18.58,1111122 
DISL,ioos:station:DISL:CATA:1,2011-08-01T03:30:00Z,30.3085,-88.1395,2.239,18.79,1111122 
DISL,ioos:station:DISL:CATA:1,2011-08-01T04:00:00Z,30.3085,-88.1395,2.236,19.29,1111122 
DISL,ioos:station:DISL:CATA:1,2011-08-01T04:30:00Z,30.3085,-88.1395,2.25,19.41,1111122 
DISL,ioos:station:DISL:CATA:1,2011-08-01T05:00:00Z,30.3085,-88.1395,2.257,19.83,1111122 
DISL,ioos:station:DISL:CATA:1,2011-08-01T05:30:00Z,30.3085,-88.1395,2.272,19.13,1111122 
DISL,ioos:station:DISL:CATA:1,2011-08-01T06:00:00Z,30.3085,-88.1395,2.304,18.17,1111122 
DISL,ioos:station:DISL:CATA:1,2011-08-01T06:30:00Z,30.3085,-88.1395,2.334,17.73,1111122 
DISL,ioos:station:DISL:CATA:1,2011-08-01T07:00:00Z,30.3085,-88.1395,2.328,17.75,1111122 
DISL,ioos:station:DISL:CATA:1,2011-08-01T07:30:00Z,30.3085,-88.1395,2.349,17.41,1111122 
DISL,ioos:station:DISL:CATA:1,2011-08-01T08:00:00Z,30.3085,-88.1395,2.362,17.67,1111122 
DISL,ioos:station:DISL:CATA:1,2011-08-01T08:30:00Z,30.3085,-88.1395,2.363,17.99,1111122 
DISL,ioos:station:DISL:CATA:1,2011-08-01T09:00:00Z,30.3085,-88.1395,2.373,17.82,1111122 
DISL,ioos:station:DISL:CATA:1,2011-08-01T09:30:00Z,30.3085,-88.1395,2.373,18.01,1111122 
DISL,ioos:station:DISL:CATA:1,2011-08-01T10:00:00Z,30.3085,-88.1395,2.39,18.11,1111122 
DISL,ioos:station:DISL:CATA:1,2011-08-01T10:30:00Z,30.3085,-88.1395,2.394,19.45,1111122 
DISL,ioos:station:DISL:CATA:1,2011-08-01T11:00:00Z,30.3085,-88.1395,2.419,19.98,1111122 
DISL,ioos:station:DISL:CATA:1,2011-08-01T11:30:00Z,30.3085,-88.1395,2.458,20.17,1111122 
DISL,ioos:station:DISL:CATA:1,2011-08-01T12:00:00Z,30.3085,-88.1395,2.496,19.99,1111122 
DISL,ioos:station:DISL:CATA:1,2011-08-01T12:30:00Z,30.3085,-88.1395,2.516,19.56,1111122 
DISL,ioos:station:DISL:CATA:1,2011-08-01T13:00:00Z,30.3085,-88.1395,2.527,19.9,1111122 
DISL,ioos:station:DISL:CATA:1,2011-08-01T13:30:00Z,30.3085,-88.1395,2.55,20.39,1111122 
DISL,ioos:station:DISL:CATA:1,2011-08-01T14:00:00Z,30.3085,-88.1395,2.566,20.11,1111122 
DISL,ioos:station:DISL:CATA:1,2011-08-01T14:30:00Z,30.3085,-88.1395,2.577,20.99,1111122 
DISL,ioos:station:DISL:CATA:1,2011-08-01T15:00:00Z,30.3085,-88.1395,2.593,21.67,1111122 
DISL,ioos:station:DISL:CATA:1,2011-08-01T15:30:00Z,30.3085,-88.1395,2.614,21.35,1111122 
DISL,ioos:station:DISL:CATA:1,2011-08-01T16:00:00Z,30.3085,-88.1395,2.62,21.61,1111122 
DISL,ioos:station:DISL:CATA:1,2011-08-01T16:30:00Z,30.3085,-88.1395,2.621,22.08,1111122 
DISL,ioos:station:DISL:CATA:1,2011-08-01T17:00:00Z,30.3085,-88.1395,2.63,21.84,1111122 
DISL,ioos:station:DISL:CATA:1,2011-08-01T17:30:00Z,30.3085,-88.1395,2.629,21.83,1111122 
DISL,ioos:station:DISL:CATA:1,2011-08-01T18:00:00Z,30.3085,-88.1395,2.632,21.67,1111122 
DISL,ioos:station:DISL:CATA:1,2011-08-01T18:30:00Z,30.3085,-88.1395,2.619,21.68,1111122 
DISL,ioos:station:DISL:CATA:1,2011-08-01T19:00:00Z,30.3085,-88.1395,2.619,22.18,1111122 
DISL,ioos:station:DISL:CATA:1,2011-08-01T19:30:00Z,30.3085,-88.1395,2.61,21.92,1111122 
DISL,ioos:station:DISL:CATA:1,2011-08-01T20:00:00Z,30.3085,-88.1395,2.547,22.99,1111122 
DISL,ioos:station:DISL:CATA:1,2011-08-01T20:30:00Z,30.3085,-88.1395,2.511,22.18,1111122 
DISL,ioos:station:DISL:CATA:1,2011-08-01T21:00:00Z,30.3085,-88.1395,2.497,22.16,1111122 
DISL,ioos:station:DISL:CATA:1,2011-08-01T21:30:00Z,30.3085,-88.1395,2.477,23.19,1111122 
DISL,ioos:station:DISL:CATA:1,2011-08-01T22:00:00Z,30.3085,-88.1395,2.448,22.1,1111122 
DISL,ioos:station:DISL:CATA:1,2011-08-01T22:30:00Z,30.3085,-88.1395,2.403,22.05,1111122 
DISL,ioos:station:DISL:CATA:1,2011-08-01T23:00:00Z,30.3085,-88.1395,2.378,21.44,1111122 
DISL,ioos:station:DISL:CATA:1,2011-08-01T23:30:00Z,30.3085,-88.1395,2.37,21.05,1111122 
DISL,ioos:station:DISL:CATA:1,2011-08-02T00:00:00Z,30.3085,-88.1395,2.348,21.29,1111122 
DISL,ioos:station:DISL:CATA:1,2011-08-02T00:30:00Z,30.3085,-88.1395,2.315,20.53,1111122 
DISL,ioos:station:DISL:CATA:1,2011-08-02T01:00:00Z,30.3085,-88.1395,2.291,20.27,1111122 
DISL,ioos:station:DISL:CATA:1,2011-08-02T01:30:00Z,30.3085,-88.1395,2.293,20.18,1111122 
DISL,ioos:station:DISL:CATA:1,2011-08-02T02:00:00Z,30.3085,-88.1395,2.289,19.81,1111122 
DISL,ioos:station:DISL:CATA:1,2011-08-02T02:30:00Z,30.3085,-88.1395,2.285,20.36,1111122 
DISL,ioos:station:DISL:CATA:1,2011-08-02T03:00:00Z,30.3085,-88.1395,2.28,20.38,1111122 
DISL,ioos:station:DISL:CATA:1,2011-08-02T03:30:00Z,30.3085,-88.1395,2.297,20.76,1111122 
DISL,ioos:station:DISL:CATA:1,2011-08-02T04:00:00Z,30.3085,-88.1395,2.275,20.16,1111122 
DISL,ioos:station:DISL:CATA:1,2011-08-02T04:30:00Z,30.3085,-88.1395,2.272,20.62,1111122 
DISL,ioos:station:DISL:CATA:1,2011-08-02T05:00:00Z,30.3085,-88.1395,2.287,20.77,1111122 
DISL,ioos:station:DISL:CATA:1,2011-08-02T05:30:00Z,30.3085,-88.1395,2.273,21.23,1111122 
DISL,ioos:station:DISL:CATA:1,2011-08-02T06:00:00Z,30.3085,-88.1395,2.309,19.95,1111122 
DISL,ioos:station:DISL:CATA:1,2011-08-02T06:30:00Z,30.3085,-88.1395,2.318,19.96,1111122 
DISL,ioos:station:DISL:CATA:1,2011-08-02T07:00:00Z,30.3085,-88.1395,2.354,19.42,1111122 
DISL,ioos:station:DISL:CATA:1,2011-08-02T07:30:00Z,30.3085,-88.1395,2.372,19.38,1111122 
DISL,ioos:station:DISL:CATA:1,2011-08-02T08:00:00Z,30.3085,-88.1395,2.363,20.02,1111122 
DISL,ioos:station:DISL:CATA:1,2011-08-02T08:30:00Z,30.3085,-88.1395,2.374,19.23,1111122 
DISL,ioos:station:DISL:CATA:1,2011-08-02T09:00:00Z,30.3085,-88.1395,2.39,19.89,1111122 
DISL,ioos:station:DISL:CATA:1,2011-08-02T09:30:00Z,30.3085,-88.1395,2.388,20.38,1111122 
DISL,ioos:station:DISL:CATA:1,2011-08-02T10:00:00Z,30.3085,-88.1395,2.395,19.83,1111122 
DISL,ioos:station:DISL:CATA:1,2011-08-02T10:30:00Z,30.3085,-88.1395,2.383,20.97,1111122 
DISL,ioos:station:DISL:CATA:1,2011-08-02T11:00:00Z,30.3085,-88.1395,2.386,20.99,1111122 
DISL,ioos:station:DISL:CATA:1,2011-08-02T11:30:00Z,30.3085,-88.1395,2.382,21.52,1111122 
DISL,ioos:station:DISL:CATA:1,2011-08-02T12:00:00Z,30.3085,-88.1395,2.382,21.84,1111122 
DISL,ioos:station:DISL:CATA:1,2011-08-02T12:30:00Z,30.3085,-88.1395,2.396,21.61,1111122 
DISL,ioos:station:DISL:CATA:1,2011-08-02T13:00:00Z,30.3085,-88.1395,2.407,21.42,1111122 
DISL,ioos:station:DISL:CATA:1,2011-08-02T13:30:00Z,30.3085,-88.1395,2.423,21.28,1111122 
DISL,ioos:station:DISL:CATA:1,2011-08-02T14:00:00Z,30.3085,-88.1395,2.443,20.82,1111122 
DISL,ioos:station:DISL:CATA:1,2011-08-02T14:30:00Z,30.3085,-88.1395,2.457,20.42,1111122 
DISL,ioos:station:DISL:CATA:1,2011-08-02T15:00:00Z,30.3085,-88.1395,2.477,20.88,1111122 
DISL,ioos:station:DISL:CATA:1,2011-08-02T15:30:00Z,30.3085,-88.1395,2.492,20.77,1111122 
DISL,ioos:station:DISL:CATA:1,2011-08-02T16:00:00Z,30.3085,-88.1395,2.513,20.44,1111122 
DISL,ioos:station:DISL:CATA:1,2011-08-02T16:30:00Z,30.3085,-88.1395,2.524,20.47,1111122 
DISL,ioos:station:DISL:CATA:1,2011-08-02T17:00:00Z,30.3085,-88.1395,2.519,20.2,1111122 
DISL,ioos:station:DISL:CATA:1,2011-08-02T17:30:00Z,30.3085,-88.1395,2.512,20.75,1111122 
DISL,ioos:station:DISL:CATA:1,2011-08-02T18:00:00Z,30.3085,-88.1395,2.499,20.29,1111122 
DISL,ioos:station:DISL:CATA:1,2011-08-02T18:30:00Z,30.3085,-88.1395,2.503,21.46,1111122 
DISL,ioos:station:DISL:CATA:1,2011-08-02T19:00:00Z,30.3085,-88.1395,2.501,20.68,1111122 
DISL,ioos:station:DISL:CATA:1,2011-08-02T19:30:00Z,30.3085,-88.1395,2.49,21.09,1111122 
DISL,ioos:station:DISL:CATA:1,2011-08-02T20:00:00Z,30.3085,-88.1395,2.493,22.06,1111122 
DISL,ioos:station:DISL:CATA:1,2011-08-02T20:30:00Z,30.3085,-88.1395,2.501,22.15,1111122 
DISL,ioos:station:DISL:CATA:1,2011-08-02T21:00:00Z,30.3085,-88.1395,2.501,21.6,1111122 
DISL,ioos:station:DISL:CATA:1,2011-08-02T21:30:00Z,30.3085,-88.1395,2.5,21.51,1111122 
DISL,ioos:station:DISL:CATA:1,2011-08-02T22:00:00Z,30.3085,-88.1395,2.482,22.29,1111122 
DISL,ioos:station:DISL:CATA:1,2011-08-02T22:30:00Z,30.3085,-88.1395,2.433,22.42,1111122 
DISL,ioos:station:DISL:CATA:1,2011-08-02T23:00:00Z,30.3085,-88.1395,2.404,22.1,1111122 
DISL,ioos:station:DISL:CATA:1,2011-08-02T23:30:00Z,30.3085,-88.1395,2.384,21.67,1111122 
DISL,ioos:station:DISL:CATA:1,2011-08-03T00:00:00Z,30.3085,-88.1395,2.36,22.68,1111122 
DISL,ioos:station:DISL:CATA:1,2011-08-03T00:30:00Z,30.3085,-88.1395,2.35,22.49,1111122 
DISL,ioos:station:DISL:CATA:1,2011-08-03T01:00:00Z,30.3085,-88.1395,2.345,22.05,1111122 
DISL,ioos:station:DISL:CATA:1,2011-08-03T01:30:00Z,30.3085,-88.1395,2.354,19.49,1111122 
DISL,ioos:station:DISL:CATA:1,2011-08-03T02:00:00Z,30.3085,-88.1395,2.353,20.32,1111122 
DISL,ioos:station:DISL:CATA:1,2011-08-03T02:30:00Z,30.3085,-88.1395,2.376,19.69,1111122 
DISL,ioos:station:DISL:CATA:1,2011-08-03T03:00:00Z,30.3085,-88.1395,2.399,20.78,1111122 
DISL,ioos:station:DISL:CATA:1,2011-08-03T03:30:00Z,30.3085,-88.1395,2.414,20.82,1111122 
DISL,ioos:station:DISL:CATA:1,2011-08-03T04:00:00Z,30.3085,-88.1395,2.403,20.68,1111122 
DISL,ioos:station:DISL:CATA:1,2011-08-03T04:30:00Z,30.3085,-88.1395,2.413,20.2,1111122 
DISL,ioos:station:DISL:CATA:1,2011-08-03T05:00:00Z,30.3085,-88.1395,2.398,20.62,1111122 
DISL,ioos:station:DISL:CATA:1,2011-08-03T05:30:00Z,30.3085,-88.1395,2.403,20.42,1111122 
DISL,ioos:station:DISL:CATA:1,2011-08-03T06:00:00Z,30.3085,-88.1395,2.407,19.54,1111122 
DISL,ioos:station:DISL:CATA:1,2011-08-03T06:30:00Z,30.3085,-88.1395,2.406,21.13,1111122 
DISL,ioos:station:DISL:CATA:1,2011-08-03T07:00:00Z,30.3085,-88.1395,2.398,21.39,1111122 
DISL,ioos:station:DISL:CATA:1,2011-08-03T07:30:00Z,30.3085,-88.1395,2.412,21.82,1111122 
DISL,ioos:station:DISL:CATA:1,2011-08-03T08:00:00Z,30.3085,-88.1395,2.423,22.38,1111122 
DISL,ioos:station:DISL:CATA:1,2011-08-03T08:30:00Z,30.3085,-88.1395,2.438,21.48,1111122 
DISL,ioos:station:DISL:CATA:1,2011-08-03T09:00:00Z,30.3085,-88.1395,2.443,22.06,1111122 
DISL,ioos:station:DISL:CATA:1,2011-08-03T09:30:00Z,30.3085,-88.1395,2.455,22.21,1111122 
DISL,ioos:station:DISL:CATA:1,2011-08-03T10:00:00Z,30.3085,-88.1395,2.451,21.62,1111122 
DISL,ioos:station:DISL:CATA:1,2011-08-03T10:30:00Z,30.3085,-88.1395,2.443,21.57,1111122 
DISL,ioos:station:DISL:CATA:1,2011-08-03T11:00:00Z,30.3085,-88.1395,2.413,21.53,1111122 
DISL,ioos:station:DISL:CATA:1,2011-08-03T11:30:00Z,30.3085,-88.1395,2.399,22.51,1111122 
DISL,ioos:station:DISL:CATA:1,2011-08-03T12:00:00Z,30.3085,-88.1395,2.379,21.7,1111122 
DISL,ioos:station:DISL:CATA:1,2011-08-03T12:30:00Z,30.3085,-88.1395,2.358,22.21,1111122 
DISL,ioos:station:DISL:CATA:1,2011-08-03T13:00:00Z,30.3085,-88.1395,2.358,19.53,1111122 
DISL,ioos:station:DISL:CATA:1,2011-08-03T13:30:00Z,30.3085,-88.1395,2.365,18.3,1111122 
DISL,ioos:station:DISL:CATA:1,2011-08-03T14:00:00Z,30.3085,-88.1395,2.366,18.23,1111122 
DISL,ioos:station:DISL:CATA:1,2011-08-03T14:30:00Z,30.3085,-88.1395,2.381,17.29,1111122 
DISL,ioos:station:DISL:CATA:1,2011-08-03T15:00:00Z,30.3085,-88.1395,2.389,17.31,1111122 
DISL,ioos:station:DISL:CATA:1,2011-08-03T15:30:00Z,30.3085,-88.1395,2.41,17.06,1111122 
DISL,ioos:station:DISL:CATA:1,2011-08-03T16:00:00Z,30.3085,-88.1395,2.417,15.81,1111122 
DISL,ioos:station:DISL:CATA:1,2011-08-03T16:30:00Z,30.3085,-88.1395,2.434,17.08,1111122 
DISL,ioos:station:DISL:CATA:1,2011-08-03T17:00:00Z,30.3085,-88.1395,2.424,15.87,1111122 
DISL,ioos:station:DISL:CATA:1,2011-08-03T17:30:00Z,30.3085,-88.1395,2.418,16.77,1111122 
DISL,ioos:station:DISL:CATA:1,2011-08-03T18:00:00Z,30.3085,-88.1395,2.411,16.93,1111122 
DISL,ioos:station:DISL:CATA:1,2011-08-03T18:30:00Z,30.3085,-88.1395,2.406,18.36,1111122 
DISL,ioos:station:DISL:CATA:1,2011-08-03T19:00:00Z,30.3085,-88.1395,2.406,20.5,1111122 
DISL,ioos:station:DISL:CATA:1,2011-08-03T19:30:00Z,30.3085,-88.1395,2.418,21.05,1111122 
DISL,ioos:station:DISL:CATA:1,2011-08-03T20:00:00Z,30.3085,-88.1395,2.433,20.96,1111122 
DISL,ioos:station:DISL:CATA:1,2011-08-03T20:30:00Z,30.3085,-88.1395,2.435,19.37,1111122 
DISL,ioos:station:DISL:CATA:1,2011-08-03T21:00:00Z,30.3085,-88.1395,2.426,18.01,1111122 
DISL,ioos:station:DISL:CATA:1,2011-08-03T21:30:00Z,30.3085,-88.1395,2.431,18.47,1111122 
DISL,ioos:station:DISL:CATA:1,2011-08-03T22:00:00Z,30.3085,-88.1395,2.426,18.82,1111122 
DISL,ioos:station:DISL:CATA:1,2011-08-03T22:30:00Z,30.3085,-88.1395,2.42,19.29,1111122 
DISL,ioos:station:DISL:CATA:1,2011-08-03T23:00:00Z,30.3085,-88.1395,2.416,19.47,1111122 
DISL,ioos:station:DISL:CATA:1,2011-08-03T23:30:00Z,30.3085,-88.1395,2.415,19.51,1111122 
DISL,ioos:station:DISL:CATA:1,2011-08-04T00:00:00Z,30.3085,-88.1395,2.399,19.65,1111122 
DISL,ioos:station:DISL:CATA:1,2011-08-04T00:30:00Z,30.3085,-88.1395,2.397,19.71,1111122 
DISL,ioos:station:DISL:CATA:1,2011-08-04T01:00:00Z,30.3085,-88.1395,2.394,19.74,1111122 
DISL,ioos:station:DISL:CATA:1,2011-08-04T01:30:00Z,30.3085,-88.1395,2.395,19.82,1111122 
DISL,ioos:station:DISL:CATA:1,2011-08-04T02:00:00Z,30.3085,-88.1395,2.419,20.02,1111122 
DISL,ioos:station:DISL:CATA:1,2011-08-04T02:30:00Z,30.3085,-88.1395,2.436,19.98,1111122 
DISL,ioos:station:DISL:CATA:1,2011-08-04T03:00:00Z,30.3085,-88.1395,2.446,19.9,1111122 
DISL,ioos:station:DISL:CATA:1,2011-08-04T03:30:00Z,30.3085,-88.1395,2.459,20.05,1111122 
DISL,ioos:station:DISL:CATA:1,2011-08-04T04:00:00Z,30.3085,-88.1395,2.47,20.15,1111122 
DISL,ioos:station:DISL:CATA:1,2011-08-04T04:30:00Z,30.3085,-88.1395,2.479,20.24,1111122 
DISL,ioos:station:DISL:CATA:1,2011-08-04T05:00:00Z,30.3085,-88.1395,2.481,20.19,1111122 
DISL,ioos:station:DISL:CATA:1,2011-08-04T05:30:00Z,30.3085,-88.1395,2.485,20.26,1111122 
DISL,ioos:station:DISL:CATA:1,2011-08-04T06:00:00Z,30.3085,-88.1395,2.495,20.07,1111122 
DISL,ioos:station:DISL:CATA:1,2011-08-04T06:30:00Z,30.3085,-88.1395,2.5,20.12,1111122 
DISL,ioos:station:DISL:CATA:1,2011-08-04T07:00:00Z,30.3085,-88.1395,2.503,20.6,1111122 
DISL,ioos:station:DISL:CATA:1,2011-08-04T07:30:00Z,30.3085,-88.1395,2.508,20.49,1111122 
DISL,ioos:station:DISL:CATA:1,2011-08-04T08:00:00Z,30.3085,-88.1395,2.51,20.75,1111122 
DISL,ioos:station:DISL:CATA:1,2011-08-04T08:30:00Z,30.3085,-88.1395,2.514,20.77,1111122 
DISL,ioos:station:DISL:CATA:1,2011-08-04T09:00:00Z,30.3085,-88.1395,2.529,20.95,1111122 
DISL,ioos:station:DISL:CATA:1,2011-08-04T09:30:00Z,30.3085,-88.1395,2.53,21.59,1111122 
DISL,ioos:station:DISL:CATA:1,2011-08-04T10:00:00Z,30.3085,-88.1395,2.524,22.12,1111122 
DISL,ioos:station:DISL:CATA:1,2011-08-04T10:30:00Z,30.3085,-88.1395,2.508,22.04,1111122 
DISL,ioos:station:DISL:CATA:1,2011-08-04T11:00:00Z,30.3085,-88.1395,2.498,21.92,1111122 
DISL,ioos:station:DISL:CATA:1,2011-08-04T11:30:00Z,30.3085,-88.1395,2.473,22.03,1111122 
DISL,ioos:station:DISL:CATA:1,2011-08-04T12:00:00Z,30.3085,-88.1395,2.471,22.38,1111122 
DISL,ioos:station:DISL:CATA:1,2011-08-04T12:30:00Z,30.3085,-88.1395,2.441,23.03,1111122 
DISL,ioos:station:DISL:CATA:1,2011-08-04T13:00:00Z,30.3085,-88.1395,2.409,22.62,1111122 
DISL,ioos:station:DISL:CATA:1,2011-08-04T13:30:00Z,30.3085,-88.1395,2.395,21.72,1111122 
DISL,ioos:station:DISL:CATA:1,2011-08-04T14:00:00Z,30.3085,-88.1395,2.382,22.25,1111122 
DISL,ioos:station:DISL:CATA:1,2011-08-04T14:30:00Z,30.3085,-88.1395,2.366,21.81,1111122 
DISL,ioos:station:DISL:CATA:1,2011-08-04T15:00:00Z,30.3085,-88.1395,2.352,22.15,1111122 
DISL,ioos:station:DISL:CATA:1,2011-08-04T15:30:00Z,30.3085,-88.1395,2.347,21.98,1111122 
DISL,ioos:station:DISL:CATA:1,2011-08-04T16:00:00Z,30.3085,-88.1395,2.339,19.28,1111122 
DISL,ioos:station:DISL:CATA:1,2011-08-04T16:30:00Z,30.3085,-88.1395,2.325,17.28,1111122 
DISL,ioos:station:DISL:CATA:1,2011-08-04T17:00:00Z,30.3085,-88.1395,2.335,16.32,1111122 
DISL,ioos:station:DISL:CATA:1,2011-08-04T17:30:00Z,30.3085,-88.1395,2.323,16.55,1111122 
DISL,ioos:station:DISL:CATA:1,2011-08-04T18:00:00Z,30.3085,-88.1395,2.331,16.33,1111122 
DISL,ioos:station:DISL:CATA:1,2011-08-04T18:30:00Z,30.3085,-88.1395,2.329,16.21,1111122 
DISL,ioos:station:DISL:CATA:1,2011-08-04T19:00:00Z,30.3085,-88.1395,2.316,15.64,1111122 
DISL,ioos:station:DISL:CATA:1,2011-08-04T19:30:00Z,30.3085,-88.1395,2.294,18.33,1111122 
DISL,ioos:station:DISL:CATA:1,2011-08-04T20:00:00Z,30.3085,-88.1395,2.289,16.32,1111122 
DISL,ioos:station:DISL:CATA:1,2011-08-04T20:30:00Z,30.3085,-88.1395,2.288,16.95,1111122 
DISL,ioos:station:DISL:CATA:1,2011-08-04T21:00:00Z,30.3085,-88.1395,2.288,17.03,1111122 
DISL,ioos:station:DISL:CATA:1,2011-08-04T21:30:00Z,30.3085,-88.1395,2.307,17.41,1111122 
DISL,ioos:station:DISL:CATA:1,2011-08-04T22:00:00Z,30.3085,-88.1395,2.327,17.82,1111122 
DISL,ioos:station:DISL:CATA:1,2011-08-04T22:30:00Z,30.3085,-88.1395,2.327,18.56,1111122 
DISL,ioos:station:DISL:CATA:1,2011-08-04T23:00:00Z,30.3085,-88.1395,2.33,19.05,1111122 
DISL,ioos:station:DISL:CATA:1,2011-08-04T23:30:00Z,30.3085,-88.1395,2.352,19.57,1111122 
DISL,ioos:station:DISL:CATA:1,2011-08-05T00:00:00Z,30.3085,-88.1395,2.34,20.16,1111122 
DISL,ioos:station:DISL:CATA:1,2011-08-05T00:30:00Z,30.3085,-88.1395,2.355,19.99,1111122 
DISL,ioos:station:DISL:CATA:1,2011-08-05T01:00:00Z,30.3085,-88.1395,2.385,20.66,1111122 
DISL,ioos:station:DISL:CATA:1,2011-08-05T01:30:00Z,30.3085,-88.1395,2.399,20.57,1111122 
DISL,ioos:station:DISL:CATA:1,2011-08-05T02:00:00Z,30.3085,-88.1395,2.416,21.79,1111122 
DISL,ioos:station:DISL:CATA:1,2011-08-05T02:30:00Z,30.3085,-88.1395,2.426,21.89,1111122 
DISL,ioos:station:DISL:CATA:1,2011-08-05T03:00:00Z,30.3085,-88.1395,2.442,22.1,1111122 
DISL,ioos:station:DISL:CATA:1,2011-08-05T03:30:00Z,30.3085,-88.1395,2.483,21.46,1111122 
DISL,ioos:station:DISL:CATA:1,2011-08-05T04:00:00Z,30.3085,-88.1395,2.488,21.82,1111122 
DISL,ioos:station:DISL:CATA:1,2011-08-05T04:30:00Z,30.3085,-88.1395,2.487,21.88,1111122 
DISL,ioos:station:DISL:CATA:1,2011-08-05T05:00:00Z,30.3085,-88.1395,2.559,20.93,1111122 
DISL,ioos:station:DISL:CATA:1,2011-08-05T05:30:00Z,30.3085,-88.1395,2.574,16.26,1111122 
DISL,ioos:station:DISL:CATA:1,2011-08-05T06:00:00Z,30.3085,-88.1395,2.457,17.15,1111122 
DISL,ioos:station:DISL:CATA:1,2011-08-05T06:30:00Z,30.3085,-88.1395,2.363,17.46,1111122 
DISL,ioos:station:DISL:CATA:1,2011-08-05T07:00:00Z,30.3085,-88.1395,2.346,17.59,1111122 
DISL,ioos:station:DISL:CATA:1,2011-08-05T07:30:00Z,30.3085,-88.1395,2.391,17.9,1111122 
DISL,ioos:station:DISL:CATA:1,2011-08-05T08:00:00Z,30.3085,-88.1395,2.38,17.71,1111122 
DISL,ioos:station:DISL:CATA:1,2011-08-05T08:30:00Z,30.3085,-88.1395,2.375,18.12,1111122 
DISL,ioos:station:DISL:CATA:1,2011-08-05T09:00:00Z,30.3085,-88.1395,2.45,18.0,1111122 
DISL,ioos:station:DISL:CATA:1,2011-08-05T09:30:00Z,30.3085,-88.1395,2.502,17.57,1111122 
DISL,ioos:station:DISL:CATA:1,2011-08-05T10:00:00Z,30.3085,-88.1395,2.508,17.65,1111122 
DISL,ioos:station:DISL:CATA:1,2011-08-05T10:30:00Z,30.3085,-88.1395,2.563,17.91,1111122 
DISL,ioos:station:DISL:CATA:1,2011-08-05T11:00:00Z,30.3085,-88.1395,2.605,17.77,1111122 
DISL,ioos:station:DISL:CATA:1,2011-08-05T11:30:00Z,30.3085,-88.1395,2.613,18.48,1111122 
DISL,ioos:station:DISL:CATA:1,2011-08-05T12:00:00Z,30.3085,-88.1395,2.592,19.94,1111122 
DISL,ioos:station:DISL:CATA:1,2011-08-05T12:30:00Z,30.3085,-88.1395,2.515,21.6,1111122 
DISL,ioos:station:DISL:CATA:1,2011-08-05T13:00:00Z,30.3085,-88.1395,2.462,22.53,1111122 
DISL,ioos:station:DISL:CATA:1,2011-08-05T13:30:00Z,30.3085,-88.1395,2.428,21.75,1111122 
DISL,ioos:station:DISL:CATA:1,2011-08-05T14:00:00Z,30.3085,-88.1395,2.366,22.69,1111122 
DISL,ioos:station:DISL:CATA:1,2011-08-05T14:30:00Z,30.3085,-88.1395,2.353,19.06,1111122 
DISL,ioos:station:DISL:CATA:1,2011-08-05T15:00:00Z,30.3085,-88.1395,2.341,17.77,1111122 
DISL,ioos:station:DISL:CATA:1,2011-08-05T15:30:00Z,30.3085,-88.1395,2.302,17.94,1111122 
DISL,ioos:station:DISL:CATA:1,2011-08-05T16:00:00Z,30.3085,-88.1395,2.296,17.83,1111122 
DISL,ioos:station:DISL:CATA:1,2011-08-05T16:30:00Z,30.3085,-88.1395,2.28,18.57,1111122 
DISL,ioos:station:DISL:CATA:1,2011-08-05T17:00:00Z,30.3085,-88.1395,2.272,18.0,1111122 
DISL,ioos:station:DISL:CATA:1,2011-08-05T17:30:00Z,30.3085,-88.1395,2.251,18.71,1111122 
DISL,ioos:station:DISL:CATA:1,2011-08-05T18:00:00Z,30.3085,-88.1395,2.23,18.29,1111122 
DISL,ioos:station:DISL:CATA:1,2011-08-05T18:30:00Z,30.3085,-88.1395,2.207,18.29,1111122 
DISL,ioos:station:DISL:CATA:1,2011-08-05T19:00:00Z,30.3085,-88.1395,2.197,18.64,1111122 
DISL,ioos:station:DISL:CATA:1,2011-08-05T19:30:00Z,30.3085,-88.1395,2.199,18.65,1111122 
DISL,ioos:station:DISL:CATA:1,2011-08-05T20:00:00Z,30.3085,-88.1395,2.207,18.31,1111122 
DISL,ioos:station:DISL:CATA:1,2011-08-05T20:30:00Z,30.3085,-88.1395,2.209,18.95,1111122 
DISL,ioos:station:DISL:CATA:1,2011-08-05T21:00:00Z,30.3085,-88.1395,2.225,18.53,1111122 
DISL,ioos:station:DISL:CATA:1,2011-08-05T21:30:00Z,30.3085,-88.1395,2.252,18.75,1111122 
DISL,ioos:station:DISL:CATA:1,2011-08-05T22:00:00Z,30.3085,-88.1395,2.26,18.5,1111122 
DISL,ioos:station:DISL:CATA:1,2011-08-05T22:30:00Z,30.3085,-88.1395,2.253,18.95,1111122 
DISL,ioos:station:DISL:CATA:1,2011-08-05T23:00:00Z,30.3085,-88.1395,2.282,18.61,1111122 
DISL,ioos:station:DISL:CATA:1,2011-08-05T23:30:00Z,30.3085,-88.1395,2.298,18.26,1111122 
DISL,ioos:station:DISL:CATA:1,2011-08-06T00:00:00Z,30.3085,-88.1395,2.317,18.42,1111122 
DISL,ioos:station:DISL:CATA:1,2011-08-06T00:30:00Z,30.3085,-88.1395,2.333,18.77,1111122 
DISL,ioos:station:DISL:CATA:1,2011-08-06T01:00:00Z,30.3085,-88.1395,2.366,18.15,1111122 
DISL,ioos:station:DISL:CATA:1,2011-08-06T01:30:00Z,30.3085,-88.1395,2.362,18.14,1111122 
DISL,ioos:station:DISL:CATA:1,2011-08-06T02:00:00Z,30.3085,-88.1395,2.376,18.11,1111122 
DISL,ioos:station:DISL:CATA:1,2011-08-06T02:30:00Z,30.3085,-88.1395,2.4,18.33,1111122 
DISL,ioos:station:DISL:CATA:1,2011-08-06T03:00:00Z,30.3085,-88.1395,2.431,18.33,1111122 
DISL,ioos:station:DISL:CATA:1,2011-08-06T03:30:00Z,30.3085,-88.1395,2.451,18.0,1111122 
DISL,ioos:station:DISL:CATA:1,2011-08-06T04:00:00Z,30.3085,-88.1395,2.457,18.28,1111122 
DISL,ioos:station:DISL:CATA:1,2011-08-06T04:30:00Z,30.3085,-88.1395,2.472,18.97,1111122 
DISL,ioos:station:DISL:CATA:1,2011-08-06T05:00:00Z,30.3085,-88.1395,2.499,19.05,1111122 
DISL,ioos:station:DISL:CATA:1,2011-08-06T05:30:00Z,30.3085,-88.1395,2.537,19.17,1111122 
DISL,ioos:station:DISL:CATA:1,2011-08-06T06:00:00Z,30.3085,-88.1395,2.575,19.5,1111122 
DISL,ioos:station:DISL:CATA:1,2011-08-06T06:30:00Z,30.3085,-88.1395,2.606,19.34,1111122 
DISL,ioos:station:DISL:CATA:1,2011-08-06T07:00:00Z,30.3085,-88.1395,2.614,18.85,1111122 
DISL,ioos:station:DISL:CATA:1,2011-08-06T07:30:00Z,30.3085,-88.1395,2.617,19.87,1111122 
DISL,ioos:station:DISL:CATA:1,2011-08-06T08:00:00Z,30.3085,-88.1395,2.634,20.11,1111122 
DISL,ioos:station:DISL:CATA:1,2011-08-06T08:30:00Z,30.3085,-88.1395,2.663,20.49,1111122 
DISL,ioos:station:DISL:CATA:1,2011-08-06T09:00:00Z,30.3085,-88.1395,2.648,21.13,1111122 
DISL,ioos:station:DISL:CATA:1,2011-08-06T09:30:00Z,30.3085,-88.1395,2.666,20.77,1111122 
DISL,ioos:station:DISL:CATA:1,2011-08-06T10:00:00Z,30.3085,-88.1395,2.655,20.7,1111122 
DISL,ioos:station:DISL:CATA:1,2011-08-06T10:30:00Z,30.3085,-88.1395,2.668,20.89,1111122 
DISL,ioos:station:DISL:CATA:1,2011-08-06T11:00:00Z,30.3085,-88.1395,2.643,21.27,1111122 
DISL,ioos:station:DISL:CATA:1,2011-08-06T11:30:00Z,30.3085,-88.1395,2.643,21.01,1111122 
DISL,ioos:station:DISL:CATA:1,2011-08-06T12:00:00Z,30.3085,-88.1395,2.623,20.91,1111122 
DISL,ioos:station:DISL:CATA:1,2011-08-06T12:30:00Z,30.3085,-88.1395,2.593,21.14,1111122 
DISL,ioos:station:DISL:CATA:1,2011-08-06T13:00:00Z,30.3085,-88.1395,2.564,21.34,1111122 
DISL,ioos:station:DISL:CATA:1,2011-08-06T13:30:00Z,30.3085,-88.1395,2.543,19.02,1111122 
DISL,ioos:station:DISL:CATA:1,2011-08-06T14:00:00Z,30.3085,-88.1395,2.502,18.77,1111122 